This is the latest recevied weather packets stored in our database for station/object K3MV-13. If no packets are shown the sender has not sent any weather packets the latest 10 day(s).
| Time | Temp. | Humidity | Pressure | Rain* | Wind** | Luminosity | Snow |
|---|---|---|---|---|---|---|---|
| 1777670133 | 11.67° C | 52% | 1010.6 hPa | 0 mm | - | 98 W/m² | - |
| 1777669832 | 11.67° C | 50% | 1010.4 hPa | 0 mm | - | 107 W/m² | - |
| 1777669527 | 11.67° C | 51% | 1010.5 hPa | 0 mm | - | 126 W/m² | - |
| 1777669227 | 11.67° C | 48% | 1010.2 hPa | 0 mm | - | 154 W/m² | - |
| 1777668921 | 11.67° C | 48% | 1010.3 hPa | 0 mm | - | 70 W/m² | - |
| 1777667708 | 12.78° C | 42% | 1010.4 hPa | 0 mm | - | 73 W/m² | - |
| 1777667406 | 12.78° C | 44% | 1010.2 hPa | 0 mm | - | 124 W/m² | - |
| 1777667102 | 12.78° C | 45% | 1010 hPa | 0 mm | - | 74 W/m² | - |
| 1777666193 | 13.33° C | 40% | 1010.1 hPa | 0 mm | - | 96 W/m² | - |
| 1777665587 | 13.33° C | 41% | 1010.2 hPa | 0 mm | - | 144 W/m² | - |
| 1777664070 | 12.78° C | 40% | 1010.4 hPa | 0 mm | - | 168 W/m² | - |
| 1777662252 | 13.33° C | 39% | 1010.7 hPa | 0 mm | - | 128 W/m² | - |
| 1777661952 | 13.33° C | 39% | 1010.4 hPa | 0 mm | - | 156 W/m² | - |
| 1777660735 | 13.33° C | 38% | 1010.4 hPa | 0 mm | - | 367 W/m² | - |
| 1777660129 | 13.33° C | 36% | 1010.5 hPa | 0 mm | - | 124 W/m² | - |
| 1777659826 | 13.89° C | 38% | 1010.6 hPa | 0 mm | - | 165 W/m² | - |
| 1777659523 | 13.89° C | 38% | 1010.7 hPa | 0 mm | - | 312 W/m² | - |
| 1777658917 | 13.89° C | 43% | 1011 hPa | 0 mm | - | 294 W/m² | - |
| 1777658007 | 12.78° C | 42% | 1010.9 hPa | 0 mm | - | 334 W/m² | - |
| 1777657100 | 12.78° C | 46% | 1011 hPa | 0 mm | - | 174 W/m² | - |
| 1777656797 | 13.33° C | 43% | 1011 hPa | 0 mm | - | 231 W/m² | - |
| 1777656187 | 12.78° C | 44% | 1011.4 hPa | 0 mm | - | 258 W/m² | - |
| 1777655883 | 12.78° C | 43% | 1011.5 hPa | 0 mm | - | 229 W/m² | - |
| 1777654369 | 13.89° C | 48% | 1011.5 hPa | 0 mm | - | 418 W/m² | - |
| 1777653459 | 13.89° C | 44% | 1011.6 hPa | 0 mm | - | 360 W/m² | - |
* Rain latest hour (hover to see other rain measurements)
** Current wind speed in m/s (hover to see current wind gust speed)